GEFSGL_con_probscp_282.txt.gz
Probability
13 13 13 12 12 13 13 13 15 16 15 15 17 20 20 19 20 18 12 10 10 9 7 7 7 9 12 11 10 12 14 13 12 9 7 5 5 5 7 7 6 4 2
13 14 13 12 12 12 12 12 13 14 15 16 18 21 21 20 20 18 15 14 14 14 13 12 11 12 15 15 13 13 14 13 11 9 6 5 5 7 8 8 6 4 3
15 15 14 13 12 13 12 11 11 12 14 16 18 21 21 20 19 18 16 17 19 19 19 17 14 15 17 17 15 14 13 12 10 8 6 6 6 9 10 9 7 5 4
18 17 15 15 15 15 14 12 13 13 13 15 18 19 19 18 17 16 16 17 19 20 19 17 14 12 13 13 12 13 13 12 10 9 8 9 10 11 11 10 8 7 6
22 20 17 18 19 18 17 16 16 16 16 17 19 19 18 16 14 13 14 15 16 18 17 14 10 8 8 8 7 9 12 13 12 13 13 13 14 14 12 10 9 9 8
26 23 22 21 22 21 20 20 20 19 18 19 19 18 16 12 9 9 10 12 14 14 14 11 7 5 5 5 4 5 7 10 11 13 15 14 14 15 13 10 9 10 9
25 23 23 24 23 22 22 23 23 21 19 18 17 16 13 9 5 4 6 10 11 11 11 9 6 4 5 6 5 3 4 5 7 10 12 13 13 15 13 10 9 10 10
21 20 21 22 21 19 21 24 27 25 20 15 13 12 10 6 3 1 2 5 7 8 8 7 5 4 4 6 7 7 7 8 7 7 9 11 12 13 12 11 11 11 10
21 21 21 21 18 17 20 23 26 26 21 14 11 10 8 5 2 0 1 3 5 6 5 5 5 5 3 4 7 10 12 12 10 8 8 8 9 10 10 11 12 12 11
25 25 24 23 21 20 20 20 22 23 20 15 12 10 8 5 1 0 1 4 6 5 4 4 4 4 3 2 6 11 13 12 11 10 9 8 8 9 9 12 14 14 13
28 28 27 24 22 21 19 18 19 20 19 17 15 11 8 5 2 0 1 3 5 5 4 3 3 3 2 1 3 8 9 9 10 11 11 11 12 14 14 15 16 16 16
32 31 27 24 20 18 17 17 18 18 17 17 15 12 9 6 2 0 0 1 2 4 4 4 3 2 1 0 1 2 3 5 8 11 12 14 17 18 18 17 17 16 15
35 33 28 24 21 18 18 17 17 17 16 14 13 11 10 8 4 2 1 1 1 3 4 3 2 1 0 0 0 0 1 4 8 10 11 13 15 16 16 16 15 14 13
34 32 28 25 23 21 19 17 16 16 15 14 13 11 11 10 7 4 3 4 4 4 4 4 2 1 1 1 1 2 3 5 7 9 10 11 12 12 13 13 13 12 11
28 28 26 25 25 22 18 15 13 13 13 12 11 11 11 10 6 3 4 5 5 4 4 4 4 3 2 3 4 4 4 4 5 7 8 9 9 10 10 11 12 12 11
23 22 22 23 23 21 18 14 10 7 6 6 5 5 6 5 3 1 1 2 2 2 2 3 3 3 3 3 4 4 3 3 3 5 6 8 8 9 9 9 10 11 11
21 21 20 20 19 17 15 14 10 6 4 2 1 1 1 1 1 0 0 0 0 0 0 1 1 2 1 2 3 3 3 3 3 4 6 7 7 7 6 6 7 8 9
21 21 20 19 16 13 12 12 11 9 7 5 2 1 0 0 0 0 0 0 0 0 0 0 0 0 0 1 2 2 2 1 1 3 4 5 5 4 4 4 4 5 6
20 20 19 17 14 12 11 11 10 8 7 6 5 3 1 0 0 0 0 0 0 0 0 0 0 0 0 0 1 1 1 0 0 1 2 3 3 3 3 3 3 3 4
18 17 15 14 13 12 12 11 9 6 4 5 4 3 2 1 0 0 0 0 0 0 0 0 0 0 0 0 0 0 0 0 0 0 0 1 1 2 3 3 3 2 2
16 14 11 10 10 10 10 10 8 5 3 2 2 1 1 1 1 1 0 0 0 0 0 0 0 0 0 0 0 0 0 0 0 0 0 0 0 1 2 3 2 2 2
13 11 9 8 8 7 7 7 6 4 2 1 0 0 0 1 1 1 1 1 0 0 0 0 0 0 0 0 0 0 0 0 0 0 0 1 1 2 3 3 4 4 4
9 8 7 7 7 5 5 5 4 3 1 0 0 0 0 0 0 1 2 2 1 0 0 0 0 0 0 0 0 0 0 0 0 0 1 2 3 4 5 5 6 6 6
5 5 5 6 6 4 3 3 2 1 0 0 0 0 0 0 0 0 1 1 0 0 0 0 0 0 0 0 0 0 0 0 0 0 1 2 3 4 5 6 6 5 5
3 3 4 6 6 4 3 3 2 1 1 1 0 0 0 0 0 0 0 0 0 0 0 0 0 0 0 0 0 0 0 0 0 0 0 1 1 1 3 3 3 3 2
3 3 4 6 6 5 4 3 3 2 2 2 1 0 0 0 0 0 0 0 0 0 0 0 0 0 0 0 0 0 0 0 0 0 0 0 0 0 1 1 1 1 0

GEFSGL_con_probscp_288.txt.gz
Probability
35 38 39 37 37 36 33 31 31 32 33 34 33 31 30 29 27 27 28 27 25 23 21 20 19 19 19 18 15 13 14 16 15 12 12 15 17 15 11 8 8 7 6
38 40 41 40 40 39 37 36 36 36 36 35 33 31 29 28 27 27 26 25 24 23 22 21 20 19 19 18 16 14 13 14 13 11 11 14 16 16 13 11 9 7 7
38 39 41 43 43 42 41 41 42 40 38 36 33 30 27 25 24 24 23 22 22 22 22 22 21 20 21 20 18 16 14 13 14 11 10 11 13 15 16 13 10 8 8
36 37 41 44 44 43 43 43 43 41 38 35 34 31 27 22 18 17 18 18 18 19 20 20 19 18 18 18 17 16 15 15 15 12 9 8 11 14 14 13 11 10 9
38 40 43 46 45 43 42 42 43 40 37 35 32 29 24 18 13 12 13 14 15 16 17 17 16 13 10 9 10 11 12 13 14 13 9 8 10 13 13 12 10 10 10
44 43 45 45 43 40 38 38 39 39 37 34 30 25 20 13 9 9 10 11 12 13 14 14 13 9 5 3 3 3 5 8 11 12 10 8 10 12 12 12 10 10 10
44 44 44 43 40 37 34 33 34 34 33 31 29 25 18 11 7 6 6 8 10 12 12 13 12 10 6 3 2 3 5 6 6 8 10 9 8 10 12 12 11 11 11
43 43 42 40 37 35 33 30 29 28 29 29 28 25 18 11 6 4 4 6 9 11 12 12 12 10 7 4 4 6 8 8 5 5 6 7 5 6 8 10 11 11 12
42 42 41 38 34 32 32 31 28 26 27 28 26 23 18 10 4 2 2 6 9 10 12 11 11 9 6 4 4 7 8 8 6 5 4 5 4 3 4 8 11 13 12
40 40 39 36 33 32 32 32 29 26 25 24 23 22 19 12 5 1 2 5 8 11 12 10 7 6 3 2 3 5 6 6 7 7 6 6 5 3 3 6 11 13 13
39 39 38 35 32 32 33 32 29 26 24 23 22 22 22 17 7 2 1 3 6 9 10 8 5 2 1 1 1 2 4 5 6 7 7 6 5 4 4 7 10 13 12
42 42 40 35 30 30 33 32 28 26 24 22 21 21 21 18 10 4 1 1 3 5 6 5 3 1 0 0 0 0 1 2 3 4 4 5 4 5 5 7 10 11 11
45 46 41 34 28 29 30 29 26 24 22 20 18 16 16 16 12 7 3 1 1 2 3 2 1 0 0 0 0 0 0 1 2 3 3 4 5 5 6 7 9 11 12
46 45 39 33 29 29 29 27 24 22 21 20 18 15 15 15 13 9 6 4 3 3 2 1 1 1 1 1 1 1 1 3 3 4 3 3 4 5 6 6 7 9 11
44 40 35 31 29 28 26 23 21 19 17 17 17 17 16 13 9 7 6 6 5 4 3 2 3 3 3 2 2 2 3 4 5 4 3 3 3 3 4 4 5 6 7
42 38 32 30 29 27 23 20 18 14 9 7 10 12 12 8 3 2 2 3 3 3 3 5 5 5 4 4 4 3 3 3 3 3 2 1 1 1 2 3 4 4 4
40 37 31 29 28 26 23 21 19 14 7 3 3 4 4 2 0 0 0 0 0 1 3 6 8 6 5 5 4 4 3 2 3 3 2 1 1 1 2 3 3 3 3
34 31 28 27 26 25 24 24 22 17 12 8 4 2 1 0 0 0 0 1 1 1 2 5 6 5 4 4 4 4 4 4 4 4 3 2 2 2 3 3 3 3 2
26 25 23 23 22 22 22 22 21 17 15 12 8 3 1 0 0 0 0 1 2 1 1 1 2 2 3 3 4 5 5 4 4 3 3 2 2 2 2 3 2 1 1
20 19 19 19 18 19 19 18 16 14 13 11 8 4 1 0 0 0 1 2 2 1 0 0 0 1 2 4 5 5 4 2 2 2 2 1 1 1 2 2 2 1 1
15 15 16 17 16 16 15 14 12 11 10 9 7 4 1 0 0 0 1 2 2 1 1 1 1 1 2 3 3 2 1 0 1 2 2 1 1 2 3 3 2 2 2
12 13 14 14 14 12 10 9 8 7 7 7 6 3 1 0 0 0 1 3 3 3 2 2 2 2 2 2 1 0 0 0 0 1 1 1 1 2 3 2 1 1 1
10 11 12 11 10 8 6 5 5 4 4 5 5 3 1 0 0 0 1 2 3 3 3 3 3 3 3 2 1 0 0 0 0 0 0 0 1 1 1 1 0 0 0
8 8 9 8 7 6 5 4 4 2 1 2 3 2 0 0 0 0 0 1 3 3 4 4 4 4 3 3 2 1 0 0 0 0 0 0 0 0 0 0 0 0 0
6 7 7 6 6 6 6 6 4 2 1 1 3 3 1 0 0 0 0 1 2 3 4 5 5 5 4 3 2 1 0 0 0 0 0 0 0 0 0 0 0 0 0
6 6 6 6 6 6 6 6 4 3 2 2 4 4 2 1 0 0 0 0 1 3 4 5 6 6 4 3 2 1 0 0 0 0 0 0 0 0 0 0 0 0 0

GEFSGL_con_probscp_294.txt.gz
Probability
28 26 20 13 10 10 10 8 7 7 8 10 12 12 12 11 11 11 12 12 11 10 10 8 7 6 6 6 6 6 6 6 5 3 2 1 0 0 0 0 0 0 0
29 27 23 17 13 12 10 10 10 10 10 11 13 13 11 10 10 10 9 9 8 8 8 7 6 5 5 6 5 4 4 4 4 3 1 0 0 0 0 0 0 0 0
30 29 26 22 18 16 12 12 13 14 14 13 13 12 11 10 9 9 8 7 6 7 7 6 5 4 4 4 4 3 3 3 3 2 1 0 0 0 0 0 0 0 0
30 29 27 25 23 21 17 15 15 13 11 10 11 11 9 9 8 8 7 6 6 6 6 5 4 4 4 4 3 3 3 3 3 2 1 0 0 0 0 0 0 0 0
32 30 28 25 25 24 21 20 16 10 7 6 7 8 7 6 6 5 5 4 4 4 5 4 4 4 4 4 4 3 3 3 3 2 1 0 0 0 0 0 0 0 0
32 30 28 26 26 24 23 21 16 9 5 5 5 4 4 3 3 3 2 2 1 1 2 2 3 3 3 3 3 3 3 3 3 2 1 0 0 0 0 0 0 0 1
30 31 31 31 29 25 23 21 15 9 6 5 4 2 2 1 1 1 1 1 0 0 0 1 1 1 1 1 3 4 4 3 3 2 1 0 0 0 0 0 1 1 2
30 32 34 35 32 27 22 19 14 10 8 6 3 2 2 2 1 0 0 0 0 0 0 0 0 1 1 1 3 5 5 4 3 2 1 0 0 0 0 1 2 3 3
31 32 35 35 33 28 22 18 14 11 8 6 3 1 2 2 1 1 1 1 1 1 0 0 0 0 1 1 3 4 5 4 3 1 0 0 0 0 0 1 2 3 4
29 30 32 33 31 27 23 20 16 12 10 8 5 2 1 1 1 1 2 2 2 2 1 0 0 0 0 1 1 2 3 3 2 1 0 0 0 0 0 0 1 3 4
26 27 28 29 28 26 23 21 17 13 11 11 9 6 2 1 0 1 2 3 3 2 1 0 0 0 0 0 0 0 1 1 1 0 0 0 0 0 0 1 1 3 4
26 26 26 26 26 24 21 20 18 14 13 13 12 10 5 1 0 0 1 2 2 1 0 0 0 0 0 0 0 0 0 0 0 0 0 0 0 1 1 2 3 3 3
27 27 26 25 24 22 20 20 18 15 13 13 13 12 8 4 1 0 0 1 1 0 0 0 0 0 0 0 0 0 0 0 0 0 0 1 1 2 3 3 3 2 2
25 26 25 24 22 21 21 21 20 17 14 13 13 12 11 7 4 1 0 0 0 0 0 0 0 0 0 0 0 0 0 0 0 0 1 2 3 3 3 2 1 1 1
21 22 23 22 20 20 20 20 18 16 14 13 13 12 11 9 6 2 0 0 0 0 0 0 0 0 0 0 0 0 1 1 1 1 2 2 2 2 1 1 0 0 0
19 20 23 23 21 20 19 18 14 12 10 10 10 11 10 8 5 2 0 0 0 0 0 0 0 0 0 0 1 1 2 2 2 2 2 1 1 1 0 0 0 0 0
17 19 23 23 21 20 19 17 14 10 7 5 5 6 7 5 3 1 0 0 0 0 0 0 1 1 1 1 2 2 2 2 1 1 1 0 0 0 0 0 0 0 0
16 18 20 21 20 18 17 16 15 12 8 4 2 2 2 2 1 0 0 0 0 0 0 0 1 2 2 2 2 1 1 1 0 0 0 0 0 0 0 0 0 0 0
16 16 17 16 15 15 14 14 13 10 7 4 2 1 0 0 0 0 0 0 1 0 0 0 1 1 1 1 1 0 0 0 0 0 0 0 0 0 0 0 0 0 0
14 15 15 13 11 12 12 11 9 8 6 4 3 2 1 0 0 0 0 0 0 0 0 0 0 0 0 0 0 0 0 0 0 0 0 0 0 0 0 0 0 0 0
11 12 12 11 10 11 11 9 7 7 6 5 4 2 1 0 0 0 0 0 0 0 0 0 0 0 0 0 0 0 0 0 0 0 0 0 0 0 0 0 0 0 0
10 10 10 9 9 9 7 6 6 6 6 4 3 2 1 0 0 0 0 0 0 0 0 0 0 0 0 0 0 0 0 0 0 0 0 0 0 0 0 0 0 0 0
10 9 8 7 7 6 5 4 5 6 5 4 3 2 1 0 0 0 0 0 0 0 0 0 0 0 0 0 0 0 0 0 0 0 0 0 0 0 0 0 0 0 0
9 7 6 5 5 4 3 3 4 4 5 4 3 2 1 0 0 0 0 0 0 0 0 0 0 0 0 0 0 0 0 0 0 0 0 0 0 0 0 0 0 0 0
6 5 4 3 3 3 2 2 2 3 3 3 2 2 1 0 0 0 0 0 0 0 0 0 0 0 0 0 0 0 0 0 0 0 0 0 0 0 0 0 0 0 0
4 4 3 2 1 1 1 1 1 1 1 1 1 1 0 0 0 0 0 0 0 0 0 0 0 0 0 0 0 0 0 0 0 0 0 0 0 0 0 0 0 0 0

GEFSGL_con_probscp_300.txt.gz
Probability
15 16 15 14 13 12 9 6 5 4 3 2 1 1 1 3 5 8 9 9 10 10 10 9 8 7 6 6 6 6 5 5 5 5 6 6 6 5 4 3 3 3 2
17 18 16 14 13 12 10 8 7 5 4 2 1 1 2 2 4 6 7 8 8 8 8 7 7 6 6 6 6 5 5 4 4 4 5 6 6 5 4 3 3 2 2
17 18 17 15 13 12 11 10 8 6 3 2 2 2 2 2 3 4 5 5 5 5 5 4 4 5 4 4 5 5 4 4 3 3 4 5 6 5 3 2 2 1 1
14 15 15 15 15 14 13 11 8 6 4 4 4 4 3 2 2 3 3 2 2 2 2 2 2 2 2 2 4 4 4 3 3 3 3 4 4 4 3 1 1 0 0
12 14 16 17 16 15 14 11 8 6 6 6 6 6 5 3 2 3 2 1 1 1 1 1 1 1 1 1 2 2 2 2 2 2 3 3 3 3 3 2 1 0 0
14 16 18 17 15 13 11 10 9 7 7 6 6 6 5 3 2 1 2 2 2 1 0 0 0 0 1 1 1 1 1 1 0 1 2 3 3 3 3 3 2 1 0
17 18 18 15 13 11 11 11 11 9 7 6 4 4 4 3 1 0 1 3 3 2 0 0 0 0 1 2 1 0 0 0 0 0 1 2 3 3 3 3 3 1 0
20 18 14 12 11 12 13 14 14 12 9 5 4 3 3 2 1 0 1 2 2 1 0 0 0 0 1 3 2 1 0 0 0 0 0 1 1 2 3 3 3 2 1
20 18 14 11 12 14 15 16 17 15 11 7 4 3 3 2 1 0 0 1 1 0 0 0 0 0 0 1 2 1 0 0 0 0 0 0 0 1 1 2 2 1 0
17 17 15 14 14 16 17 18 19 18 14 8 5 4 3 2 1 0 0 1 1 1 0 0 0 0 0 0 0 0 0 0 0 0 0 0 0 0 0 1 1 1 0
14 15 16 17 17 18 18 19 19 19 15 9 7 6 5 3 1 0 1 2 3 2 1 0 0 0 0 0 0 0 0 0 0 0 0 0 0 0 0 0 0 0 0
10 12 14 17 18 18 19 18 19 19 16 12 9 9 8 6 4 1 1 2 3 3 2 0 0 0 0 0 0 0 0 0 0 0 0 0 0 0 0 0 1 1 1
7 9 11 15 17 19 18 18 18 18 16 13 12 11 10 9 6 3 1 1 1 1 1 0 0 0 0 0 0 0 0 0 0 0 0 0 0 0 0 1 2 2 2
6 7 9 12 16 18 18 17 17 16 14 13 13 12 12 11 8 5 2 1 0 0 0 0 0 0 0 0 0 0 0 0 0 0 0 0 0 0 1 2 3 3 3
6 7 8 10 13 16 17 16 15 14 13 12 12 13 13 12 9 6 4 2 1 0 0 0 1 1 1 1 1 0 0 0 0 0 0 0 0 1 1 3 3 2 1
6 7 8 9 11 13 15 15 13 12 10 8 9 10 11 10 7 5 3 2 1 0 0 0 1 2 2 2 1 0 0 1 1 1 1 1 1 1 2 2 2 1 0
6 7 8 10 11 13 15 15 14 12 10 7 5 6 6 5 3 2 1 1 1 0 0 1 2 3 2 1 1 0 0 1 2 2 2 2 1 1 1 1 1 0 0
7 7 8 10 12 13 15 16 15 14 11 8 5 3 2 1 1 1 0 1 2 1 1 2 3 3 2 1 1 0 0 1 1 1 1 1 1 0 0 0 0 0 0
8 9 10 11 13 13 14 14 14 12 10 8 6 4 2 1 1 1 1 2 3 3 3 3 3 3 3 2 2 1 0 0 0 0 0 0 0 0 0 0 0 0 0
9 10 11 12 13 13 13 13 12 10 9 7 6 4 3 3 3 2 3 3 3 3 3 3 3 3 3 3 3 2 1 0 0 0 0 0 0 0 0 0 0 0 0
7 8 10 11 12 12 12 11 10 9 8 6 5 4 3 4 4 3 3 3 3 3 3 3 3 3 3 3 3 2 1 0 0 0 0 0 0 0 0 0 0 0 0
4 5 7 9 11 11 11 9 8 7 6 5 4 3 3 3 3 3 3 3 3 3 3 3 3 3 3 3 2 2 1 0 0 0 0 0 0 0 0 0 0 0 0
3 3 5 8 9 10 9 8 5 4 3 3 3 3 3 3 3 3 3 3 3 3 2 2 2 2 2 1 1 1 1 0 0 0 0 0 0 0 0 0 0 0 0
3 3 5 7 9 10 9 6 3 2 1 1 1 1 1 2 2 3 3 3 3 1 1 1 1 1 1 0 0 1 1 0 0 0 0 0 0 0 0 0 0 0 0
3 4 5 7 9 9 7 4 1 0 0 0 0 0 0 1 1 1 2 2 2 1 0 0 0 0 0 0 0 0 0 0 0 0 0 0 0 0 0 0 0 0 0
3 4 5 7 8 8 5 3 1 0 0 0 0 0 0 0 0 0 1 1 1 0 0 0 0 0 0 0 0 0 0 0 0 0 0 0 0 0 0 0 0 0 0

GEFSGL_con_probscp_306.txt.gz
Probability
19 18 18 22 25 26 25 23 22 24 28 29 27 24 24 25 23 18 15 13 10 9 9 9 8 9 11 13 15 16 15 12 9 7 6 5 5 5 7 9 9 9 9
21 19 18 21 25 27 26 24 24 25 29 30 28 26 26 26 25 22 19 14 10 9 8 7 6 7 8 10 13 15 15 12 8 6 4 4 4 4 5 7 8 9 9
25 23 20 22 26 28 28 28 28 29 30 30 29 27 25 24 23 23 21 15 10 7 5 5 5 6 7 9 11 13 12 9 7 4 2 2 2 2 3 3 5 8 10
26 24 23 25 28 30 30 30 31 31 30 29 27 24 21 18 17 18 18 15 10 6 5 4 6 6 6 7 8 8 8 7 6 3 1 0 0 1 1 1 3 6 8
27 26 27 30 32 31 29 28 29 29 27 25 23 20 17 13 12 12 14 15 12 8 7 6 6 5 4 3 3 4 5 5 5 3 1 0 0 0 0 0 1 4 6
32 31 32 33 33 30 27 25 25 24 21 19 18 17 16 13 10 8 11 14 13 11 9 8 6 5 3 1 0 1 1 2 3 3 2 1 0 0 0 0 1 3 4
33 33 33 33 31 29 25 23 21 18 16 16 16 16 16 13 9 5 7 10 12 11 11 10 8 6 5 3 2 1 1 1 1 2 2 1 0 1 1 1 2 2 2
29 29 29 29 29 27 25 22 19 17 15 14 14 14 16 14 8 4 4 8 11 11 11 11 10 8 5 5 5 4 3 2 1 1 1 1 0 1 2 2 1 1 1
25 25 26 27 27 26 24 21 20 19 18 16 15 16 17 15 9 4 4 8 11 12 11 10 9 7 4 4 5 5 5 5 2 1 1 0 0 1 1 1 1 1 1
22 24 25 26 26 26 24 21 20 22 21 20 19 20 21 18 11 5 4 8 11 12 11 9 6 4 2 2 3 5 6 6 5 3 2 1 1 1 1 1 2 3 4
22 23 23 24 25 25 23 20 19 21 22 21 21 23 23 19 13 6 4 7 10 11 11 10 6 3 1 1 3 5 5 5 5 4 4 4 5 5 4 5 6 8 8
22 23 24 24 23 22 21 19 18 19 20 19 19 21 21 18 13 7 3 4 7 11 13 12 9 4 1 0 2 3 3 3 4 4 4 6 8 8 8 8 9 11 13
22 23 23 22 20 20 20 19 17 17 17 17 17 19 19 16 13 10 5 3 4 9 12 11 8 3 1 1 1 1 1 2 3 4 5 7 8 9 10 9 10 12 14
20 20 20 19 19 19 20 18 17 16 16 16 18 18 17 17 16 14 11 7 6 8 11 10 7 5 4 5 5 4 4 4 4 5 7 8 9 9 10 10 10 11 12
17 17 18 18 18 18 18 17 15 14 13 13 14 15 15 14 15 15 13 11 10 10 10 11 10 10 10 11 11 10 9 6 6 6 7 8 8 9 9 9 9 9 10
16 16 15 16 17 17 16 14 13 11 8 7 8 9 9 8 8 9 9 8 8 8 9 11 12 13 13 13 14 13 11 8 7 7 6 6 6 6 6 6 7 7 7
14 14 14 14 15 14 14 13 12 10 7 5 4 4 3 3 2 3 3 2 2 4 8 12 13 13 12 11 11 11 9 8 7 7 5 4 4 4 4 4 4 4 4
11 11 12 13 14 14 13 13 13 12 11 8 5 3 1 0 0 0 1 2 3 5 9 13 14 12 10 9 8 8 7 6 6 6 5 4 4 4 4 3 3 3 3
7 7 8 10 12 12 12 12 13 15 15 13 10 5 2 0 0 0 2 5 8 8 10 13 14 12 9 8 7 6 6 5 5 6 6 6 6 6 5 4 4 3 3
6 5 5 6 8 8 9 11 13 15 15 15 14 9 4 2 1 1 2 6 9 10 10 12 14 12 10 8 6 5 5 5 5 5 6 6 6 6 6 6 5 4 3
6 5 4 4 4 5 7 9 12 13 14 14 13 10 6 4 4 3 3 5 7 8 8 9 11 11 8 6 5 4 4 5 5 5 5 6 6 6 6 6 5 4 3
7 6 4 3 4 5 7 9 10 11 12 12 12 9 5 5 6 6 5 5 6 6 5 6 7 7 5 4 4 4 5 5 5 5 5 5 6 6 6 6 5 3 3
7 6 4 4 5 6 7 9 10 10 10 11 10 8 6 6 7 6 5 4 4 5 4 3 3 2 2 2 3 4 4 4 5 5 4 4 4 5 6 4 3 3 3
7 5 4 5 6 6 7 9 10 10 10 9 9 9 9 8 7 6 5 4 4 4 4 2 1 1 1 1 1 2 2 3 3 3 3 3 3 4 4 3 1 1 1
5 4 4 4 5 6 7 9 10 10 10 8 8 9 10 9 7 6 6 5 4 4 3 3 2 2 2 2 1 1 1 1 1 1 2 3 3 3 2 1 0 0 0
4 4 3 4 4 4 6 8 9 9 8 8 8 9 10 9 7 6 6 5 4 4 3 3 3 3 3 3 2 2 1 0 0 0 1 3 3 2 1 0 0 0 0